WetterOnline ( https://www.wetteronline.de )

Wetter aktuell Pocking

Aktuelles Wetter: Fürstenzell (480m)

6-stündlich | Neueste Meldungen
Ortszeit Temperatur Wetter
Di, 20.10. 20:00 7.2° C wolkig
Di, 20.10. 14:00 8.4° C leicht bewölkt
Di, 20.10. 8:00 4.1° C Nebel
Di, 20.10. 2:00 2.7° C wolkig
Mo, 19.10. 20:00 6.9° C wolkenlos
Mo, 19.10. 14:00 10.6° C wolkenlos
Mo, 19.10. 8:00 3.1° C Nebel
Mo, 19.10. 2:00 4.5° C wolkig
Ortszeit Temperatur Wetter
Di, 20.10. 20:00 7.2° C wolkig
Di, 20.10. 19:50 7.2° C wolkig
Di, 20.10. 19:40 6.8° C wolkig
Di, 20.10. 19:30 7.0° C wolkig
Di, 20.10. 19:20 7.0° C wolkig
Di, 20.10. 19:10 7.1° C wolkig
Di, 20.10. 19:00 7.1° C wolkig
Di, 20.10. 18:30 7.4° C wolkig
Di, 20.10. 18:00 8.1° C wolkig
Di, 20.10. 17:30 8.6° C wolkig
Di, 20.10. 17:00 8.6° C wolkig
Ortszeit Relative Feuchte Sichtweite
Di, 20.10. 20:00 93% 8 km
Di, 20.10. 14:00 80% 12 km
Di, 20.10. 8:00 99% 0.4 km
Di, 20.10. 2:00 94% 17 km
Mo, 19.10. 20:00 69% 28 km
Mo, 19.10. 14:00 46% 20 km
Mo, 19.10. 8:00 98% 0.2 km
Mo, 19.10. 2:00 96% 6 km
Ortszeit Relative Feuchte Sichtweite
Di, 20.10. 20:00 93% 8 km
Di, 20.10. 19:50 93% -
Di, 20.10. 19:40 93% -
Di, 20.10. 19:30 90% 9 km
Di, 20.10. 19:20 90% -
Di, 20.10. 19:10 90% -
Di, 20.10. 19:00 90% 10 km
Di, 20.10. 18:30 88% 10 km
Di, 20.10. 18:00 85% 10 km
Di, 20.10. 17:30 81% 11 km
Di, 20.10. 17:00 83% 11 km
Ortszeit Niederschlagsmenge Niederschlagsart
Di, 20.10. 20:00 0.0 l/m2 in 12 Std. -
Di, 20.10. 14:00 0.0 l/m2 in 6 Std. -
Di, 20.10. 8:00 0.0 l/m2 in 12 Std. -
Di, 20.10. 2:00 0.0 l/m2 in 6 Std. -
Mo, 19.10. 20:00 0.0 l/m2 in 12 Std. -
Mo, 19.10. 14:00 0.0 l/m2 in 6 Std. -
Mo, 19.10. 8:00 0.0 l/m2 in 12 Std. -
Mo, 19.10. 2:00 0.0 l/m2 in 6 Std. -
Ortszeit Niederschlagsmenge Niederschlagsart
Di, 20.10. 20:00 0.0 l/m2 in 1 Std. -
Di, 20.10. 19:50 keine Meldung -
Di, 20.10. 19:40 keine Meldung -
Di, 20.10. 19:30 0.0 l/m2 in 1 Std. -
Di, 20.10. 19:20 keine Meldung -
Di, 20.10. 19:10 keine Meldung -
Di, 20.10. 19:00 0.0 l/m2 in 1 Std. -
Di, 20.10. 18:30 0.0 l/m2 in 1 Std. -
Di, 20.10. 18:00 0.0 l/m2 in 1 Std. -
Di, 20.10. 17:30 0.0 l/m2 in 1 Std. -
Di, 20.10. 17:00 0.0 l/m2 in 1 Std. -
Ortszeit Stärke Spitze Richtung
km/h Bft. km/h Grad Sektor
Di, 20.10. 20:00 4 1 11 90° O
Di, 20.10. 14:00 6 1 24 190° S
Di, 20.10. 8:00 11 2 29 110° O
Di, 20.10. 2:00 6 1 13 80° O
Mo, 19.10. 20:00 9 2 13 20° N
Mo, 19.10. 14:00 4 1 14 140° SO
Mo, 19.10. 8:00 6 1 9 50° NO
Mo, 19.10. 2:00 0 0 14 - -
Ortszeit Stärke Spitze Richtung
km/h Bft. km/h Grad Sektor
Di, 20.10. 20:00 4 1 11 90° O
Di, 20.10. 19:50 4 1 - 90° O
Di, 20.10. 19:40 4 1 - 90° O
Di, 20.10. 19:30 7 2 11 60° NO
Di, 20.10. 19:20 7 2 - 60° NO
Di, 20.10. 19:10 4 1 - 30° NO
Di, 20.10. 19:00 4 1 7 60° NO
Di, 20.10. 18:30 4 1 4 80° O
Di, 20.10. 18:00 4 1 7 290° W
Di, 20.10. 17:30 4 1 7 250° W
Di, 20.10. 17:00 7 2 11 260° W
Ortszeit Untergrenze Bedeckung Gattung
total tief tief mittel hoch
Di, 20.10. 20:00 9000 m 8/8 0/8 - - -
Di, 20.10. 14:00 8400 m 7/8 0/8 - - -
Di, 20.10. 8:00 <30 m 8/8 0/8 - - -
Di, 20.10. 2:00 8700 m 8/8 0/8 - - -
Mo, 19.10. 20:00 - 0/8 0/8 - - -
Mo, 19.10. 14:00 - 0/8 0/8 - - -
Mo, 19.10. 8:00 <30 m 8/8 0/8 - - -
Mo, 19.10. 2:00 1800 m 5/8 5/8 - - -
Ortszeit Bedeckungsgrad in Achtel und Wolkenuntergrenze
Di, 20.10. 20:00 5(9000m) 7(9000m) 8(12000m)
Di, 20.10. 19:50 5(9000m) 7(9000m) 8(12000m)
Di, 20.10. 19:40 6(9000m) 8(9000m) 8(12000m)
Di, 20.10. 19:30 1(8700m) 7(9000m) 8(12000m)
Di, 20.10. 19:20 1(8700m) 7(9000m) 8(12000m)
Di, 20.10. 19:10 3(8700m) 7(10500m) 8(12000m)
Di, 20.10. 19:00 5(8700m) 7(10500m) 8(10500m)
Di, 20.10. 18:30 5(9000m) 6(9000m) 8(10500m)
Di, 20.10. 18:00 7(9000m) 8(9000m) 8(10500m)
Di, 20.10. 17:30 1(9000m) 7(9000m) 7(10500m)
Di, 20.10. 17:00 1(8100m) 6(9000m) 7(10500m)
Ortszeit Luftdruck NN (hPa) Tendenz (hPa in 3 Std.)
Di, 20.10. 20:00 1018 - 0,6
Di, 20.10. 14:00 1019 - 1,1
Di, 20.10. 8:00 1022 0,0
Di, 20.10. 2:00 1023 - 0,8
Mo, 19.10. 20:00 1024 + 0,2
Mo, 19.10. 14:00 1024 - 1,3
Mo, 19.10. 8:00 1026 + 0,2
Mo, 19.10. 2:00 1026 + 0,3
Ortszeit Luftdruck NN (hPa) Tendenz (hPa in 3 Std.)
Di, 20.10. 20:00 1018 - 0,6
Di, 20.10. 19:50 1018 keine Meldung
Di, 20.10. 19:40 1018 keine Meldung
Di, 20.10. 19:30 1017 - 0,9
Di, 20.10. 19:20 1017 keine Meldung
Di, 20.10. 19:10 1018 keine Meldung
Di, 20.10. 19:00 1018 - 0,7
Di, 20.10. 18:30 1018 - 1,0
Di, 20.10. 18:00 1018 - 0,9
Di, 20.10. 17:30 1017 - 1,7
Di, 20.10. 17:00 1018 - 1,1
Ortszeit Schneehöhe (cm)
Di, 20.10. 20:00 0
Di, 20.10. 14:00 0
Di, 20.10. 8:00 0
Di, 20.10. 2:00 0
Mo, 19.10. 20:00 0
Mo, 19.10. 14:00 0
Mo, 19.10. 8:00 0
Mo, 19.10. 2:00 0
Ortszeit Schneehöhe (cm)
Di, 20.10. 20:00 0
Di, 20.10. 19:50 0
Di, 20.10. 19:40 0
Di, 20.10. 19:30 0
Di, 20.10. 19:20 0
Di, 20.10. 19:10 0
Di, 20.10. 19:00 0
Di, 20.10. 18:30 0
Di, 20.10. 18:00 0
Di, 20.10. 17:30 0
Di, 20.10. 17:00 0
Link zu dieser Seite / Seite empfehlen

Das Wetter in ...